Tracking 35237 objects as of 4-Sep-2026
HD Live streaming from Space Station
objects crossing your sky now

COSMOS 1494 DEB


COSMOS 1494 DEB is no longer on orbit


NORAD ID: 14708
Int'l Code: 1983-091H
Launch date: August 31, 1983
Source: Commonwealth of Independent States (former USSR) (CIS)
Launch site: KAPUSTIN YAR MISSILE AND SPACE COMPLEX (KYMTR)
Decay date: 1984-04-06

Note: This is SATELLITE DEBRIS
Your satellite tracking list
Your tracking list is empty




NASA's NSSDC Master Catalog

Two Line Element Set (TLE):
1 14708U 83091  H 84088.06893049  .00596057 +00000-0 +33958-2 0  9990
2 14708 050.6595 034.8486 0066931 264.6694 094.6638 15.74933059032475
Source of the keplerian elements: AFSPC